This demonstration page uses our WeatherBlox Daily Observations layout. Learn more.

Left ArrowRight Arrow

Hourly Observations for July 2, 2022

Temp ( °F °C ) Dew Point ( °F °C ) Humidity (%) Winds ( mph kmh ) Pressure ( in mb ) Visibility ( mi km ) Precip ( " mm )
12:53 am 00:53 Mostly Clear 85 29.4 70 21.1 61 61 S 10 17 29.90 1013 10 16 0.00 0.00
1:53 am 01:53 Mostly Clear 83 28.3 71 21.7 67 67 SSE 9 15 29.91 1013 10 16 0.00 0.00
2:53 am 02:53 Mostly Clear 81 27.2 71 21.7 72 72 SSE 8 13 29.90 1013 10 16 0.00 0.00
3:53 am 03:53 Mostly Clear 80 26.7 70 21.1 71 71 S 8 13 29.90 1012 10 16 0.00 0.00
4:53 am 04:53 Mostly Clear 79 26.1 71 21.7 77 77 S 6 9 29.90 1012 10 16 0.00 0.00
5:53 am 05:53 Mostly Clear 78 25.6 71 21.7 79 79 SSE 5 7 29.90 1013 10 16 0.00 0.00
6:53 am 06:53 Mostly Sunny 78 25.6 72 22.2 82 82 ESE 5 7 29.91 1013 10 16 0.00 0.00
7:53 am 07:53 Mostly Sunny 79 26.1 72 22.2 79 79 S 7 11 29.92 1013 10 16 0.00 0.00
8:53 am 08:53 Mostly Sunny 81 27.2 73 22.8 77 77 SE 5 7 29.93 1013 10 16 0.00 0.00
9:53 am 09:53 Mostly Sunny 85 29.4 73 22.8 68 68 S 3 6 29.93 1013 10 16 0.00 0.00
10:53 am 10:53 Mostly Sunny 88 31.1 73 22.8 61 61 VRB 3 6 29.92 1013 10 16 0.00 0.00
11:53 am 11:53 Mostly Cloudy 92 33.3 72 22.2 52 52 VRB 5 7 29.91 1013 10 16 0.00 0.00
12:53 pm 12:53 Mostly Cloudy 92 33.3 70 21.1 49 49 Calm 29.91 1013 10 16 0.00 0.00
1:53 pm 13:53 Mostly Cloudy 93 33.9 70 21.1 47 47 VRB 3 6 29.88 1012 10 16 0.00 0.00
2:53 pm 14:53 Partly Cloudy 98 36.7 69 20.6 39 39 VRB 6 9 29.86 1011 10 16 0.00 0.00
3:53 pm 15:53 Partly Cloudy 99 37.2 68 20 37 37 ENE 7 11 29.85 1011 10 16 0.00 0.00
4:53 pm 16:53 Mostly Cloudy 96 35.6 67 19.4 39 39 SE 9 15 29.84 1010 10 16 0.00 0.00
5:53 pm 17:53 Mostly Cloudy 94 34.4 71 21.7 48 48 SE 15 24 29.84 1010 10 16 0.00 0.00
6:53 pm 18:53 Mostly Cloudy 93 33.9 73 22.8 52 52 ESE 13 20 29.83 1010 10 16 0.00 0.00
7:53 pm 19:53 Mostly Cloudy 90 32.2 72 22.2 56 56 ESE 14 22 29.84 1011 10 16 0.00 0.00
8:53 pm 20:53 Partly Cloudy 89 31.7 72 22.2 57 57 SE 12 19 29.85 1011 10 16 0.00 0.00
9:53 pm 21:53 Partly Cloudy 86 30 72 22.2 63 63 ESE 13 20 29.87 1012 10 16 0.00 0.00
10:53 pm 22:53 Mostly Clear 85 29.4 71 21.7 63 63 SE 13 20 29.89 1012 10 16 0.00 0.00
11:53 pm 23:53 Mostly Clear 83 28.3 73 22.8 72 72 ESE 12 19 29.91 1013 10 16 0.00 0.00

Powered by AerisWeather